Aberdeen / Amory, MS

12:33 AM CDT on May 29, 2017 (GMT -0500)
Aberdeen / Amory

Weather History for KM40 - July, 2013

Change the Weather History Date:

Wednesday, July 10, 2013

  Actual Average (KCBM) Record (KCBM)
Temperature  
Mean Temperature 84 °F -  
Max Temperature 96 °F 89 °F 98 °F (2011)
Min Temperature 73 °F 69 °F 68 °F (1996)
Cooling Degree Days 20    
Growing Degree Days 34 (Base 50)    
Moisture  
Dew Point 65 °F    
Average Humidity 56    
Maximum Humidity 59    
Minimum Humidity 53    
Precipitation  
Precipitation 0.72 in - - ()
Sea Level Pressure  
Sea Level Pressure 30.03 in    
Wind  
Wind Speed 3 mph (SSW)    
Max Wind Speed 12 mph    
Max Gust Speed 18 mph    
Visibility 7 miles    
Events Rain    
Averages and records for this station are not official NWS values.
T = Trace of Precipitation, MM = Missing Value Source: NWS Daily Summary

Daily Weather History Graph

Daily Weather History Graph

Search for Another Location

Airport or City:

Trip Planner

Search our weather history database for the weather conditions in past years. The results will help you decide how hot, cold, wet, or windy it might be!

Date:

Astronomy

Jul. 10, 2013 Rise Set
Actual Time 5:51 AM CDT 8:07 PM CDT
Civil Twilight 5:22 AM CDT 8:35 PM CDT
Nautical Twilight 4:47 AM CDT 9:10 PM CDT
Astronomical Twilight 4:09 AM CDT 9:48 PM CDT
Moon 8:03 AM CDT (7/10) 9:26 PM CDT (7/10)
Length of Visible Light 15h 13m
Length of Day
14h 15m
Waxing Crescent, 5% of the Moon is Illuminated
Jul 10
Waxing Crescent
Jul 15
First Quarter
Jul 22
Full
Jul 29
Last Quarter
Aug 6
New

Hourly Weather History & Observations

Time (CDT) Temp. Heat Index Dew Point Humidity Pressure Visibility Wind Dir Wind Speed Gust Speed Precip Events Conditions
12:15 AM 77.0 °F - 60.8 °F 57% 30.09 in 9.0 mi Calm Calm - N/A   Clear
12:35 AM 75.2 °F - 59.0 °F 57% 30.09 in 8.0 mi SSE 4.6 mph - N/A   Clear
12:55 AM 75.2 °F - 59.0 °F 57% 30.09 in 9.0 mi Calm Calm - N/A   Clear
1:15 AM 75.2 °F - 59.0 °F 57% 30.08 in 8.0 mi Calm Calm - N/A   Clear
1:35 AM 75.2 °F - 59.0 °F 57% 30.07 in 8.0 mi Calm Calm - N/A   Clear
1:55 AM 75.2 °F - 59.0 °F 57% 30.08 in 8.0 mi Calm Calm - N/A   Clear
2:15 AM 75.2 °F - 59.0 °F 57% 30.07 in 8.0 mi South 3.5 mph - N/A   Clear
2:55 AM 73.4 °F - 57.2 °F 57% 30.07 in 3.0 mi SE 3.5 mph - N/A   Haze
3:15 AM 73.4 °F - 57.2 °F 57% 30.07 in 5.0 mi Calm Calm - N/A   Haze
3:35 AM 73.4 °F - 57.2 °F 57% 30.07 in 5.0 mi Calm Calm - N/A   Haze
3:55 AM 73.4 °F - 57.2 °F 57% 30.08 in 5.0 mi Calm Calm - N/A   Haze
4:15 AM 75.2 °F - 57.2 °F 53% 30.08 in 7.0 mi Calm Calm - N/A   Clear
4:35 AM 73.4 °F - 57.2 °F 57% 30.07 in 0.8 mi Calm Calm - N/A   Haze
4:55 AM 73.4 °F - 55.4 °F 53% 30.08 in 0.8 mi Calm Calm - N/A   Haze
5:15 AM 73.4 °F - 55.4 °F 53% 30.07 in 0.2 mi Calm Calm - N/A   Haze
5:35 AM 73.4 °F - 55.4 °F 53% 30.08 in 4.0 mi Calm Calm - N/A   Haze
5:55 AM 73.4 °F - 57.2 °F 57% 30.07 in 3.0 mi Calm Calm - N/A   Haze
6:15 AM 73.4 °F - 57.2 °F 57% 30.07 in 1.8 mi Calm Calm - N/A   Haze
6:35 AM 75.2 °F - 57.2 °F 53% 30.07 in 5.0 mi Calm Calm - N/A   Haze
6:55 AM 75.2 °F - 59.0 °F 57% 30.07 in 7.0 mi Calm Calm - N/A   Clear
7:15 AM 77.0 °F - 60.8 °F 57% 30.08 in 7.0 mi Calm Calm - N/A   Clear
7:35 AM 78.8 °F - 62.6 °F 57% 30.09 in 8.0 mi Calm Calm - N/A   Clear
7:55 AM 80.6 °F 81.8 °F 62.6 °F 54% 30.09 in 9.0 mi WSW 4.6 mph - N/A   Clear
8:15 AM 82.4 °F 83.9 °F 64.4 °F 54% 30.09 in 9.0 mi Calm Calm - N/A   Clear
8:35 AM 84.2 °F 86.6 °F 66.2 °F 55% 30.09 in 9.0 mi SW 6.9 mph - N/A   Clear
8:55 AM 84.2 °F 87.3 °F 68.0 °F 58% 30.09 in 10.0 mi WSW 3.5 mph - N/A   Clear
9:15 AM 87.8 °F 92.6 °F 69.8 °F 55% 30.09 in 10.0 mi WSW 5.8 mph - N/A   Clear
9:35 AM 87.8 °F 92.6 °F 69.8 °F 55% 30.09 in 9.0 mi WSW 8.1 mph - N/A   Clear
9:55 AM 89.6 °F 96.2 °F 71.6 °F 55% 30.09 in 10.0 mi WSW 4.6 mph - N/A   Partly Cloudy
10:15 AM 89.6 °F 96.2 °F 71.6 °F 55% 30.09 in 10.0 mi West 5.8 mph - N/A   Partly Cloudy
10:35 AM 91.4 °F 100.1 °F 73.4 °F 55% 30.09 in 9.0 mi West 6.9 mph - N/A   Clear
10:55 AM 91.4 °F 100.1 °F 73.4 °F 55% 30.09 in 9.0 mi WSW 9.2 mph 16.1 mph N/A   Partly Cloudy
11:15 AM 91.4 °F 100.1 °F 73.4 °F 55% 30.09 in 8.0 mi West 6.9 mph - N/A   Partly Cloudy
11:35 AM 93.2 °F 105.0 °F 75.2 °F 56% 30.08 in 9.0 mi WSW 9.2 mph - N/A   Clear
11:55 AM 93.2 °F 105.0 °F 75.2 °F 56% 30.07 in 10.0 mi West 8.1 mph - N/A   Clear
12:15 PM 93.2 °F 105.0 °F 75.2 °F 56% 30.06 in 9.0 mi WSW 9.2 mph - N/A   Partly Cloudy
12:35 PM 95.0 °F 109.7 °F 77.0 °F 56% 30.05 in 9.0 mi West 8.1 mph - N/A   Scattered Clouds
12:55 PM 95.0 °F 109.7 °F 77.0 °F 56% 30.04 in 10.0 mi NW 5.8 mph - N/A   Partly Cloudy
1:15 PM 95.0 °F 109.7 °F 77.0 °F 56% 30.03 in 9.0 mi WNW 8.1 mph - N/A   Scattered Clouds
1:35 PM 95.0 °F 109.7 °F 77.0 °F 56% 30.02 in 9.0 mi WNW 4.6 mph - N/A   Partly Cloudy
1:55 PM 96.8 °F 114.8 °F 78.8 °F 56% 30.01 in 10.0 mi WSW 5.8 mph - N/A   Partly Cloudy
2:15 PM 96.8 °F 114.8 °F 78.8 °F 56% 30.01 in 2.5 mi NW 11.5 mph - 0.02 in Rain Heavy Rain
2:35 PM 84.2 °F 86.6 °F 66.2 °F 55% 30.00 in 8.0 mi Calm Calm - 0.15 in   Scattered Clouds
2:55 PM 86.0 °F 89.4 °F 68.0 °F 55% 29.98 in 6.0 mi Calm Calm - 0.15 in   Haze
3:15 PM 86.0 °F 90.4 °F 69.8 °F 58% 29.98 in 8.0 mi South 5.8 mph - N/A   Drizzle
3:35 PM 84.2 °F 87.3 °F 68.0 °F 58% 29.96 in 8.0 mi Calm Calm - N/A   Partly Cloudy
3:55 PM 87.8 °F 92.6 °F 69.8 °F 55% 29.97 in 7.0 mi SSE 4.6 mph - N/A   Clear
4:15 PM 89.6 °F 98.2 °F 73.4 °F 59% 29.96 in 8.0 mi South 6.9 mph - N/A   Clear
4:35 PM 91.4 °F 100.1 °F 73.4 °F 55% 29.94 in 8.0 mi South 5.8 mph - N/A   Clear
4:55 PM 93.2 °F 105.0 °F 75.2 °F 56% 29.94 in 9.0 mi Calm Calm - N/A   Clear
5:15 PM 93.2 °F 105.0 °F 75.2 °F 56% 29.95 in 9.0 mi SE 3.5 mph - N/A   Clear
5:35 PM 91.4 °F 100.1 °F 73.4 °F 55% 29.94 in 9.0 mi SE 5.8 mph - N/A   Clear
5:55 PM 86.0 °F 90.4 °F 69.8 °F 58% 29.98 in 1.2 mi NNE 11.5 mph 18.4 mph 0.08 in Rain Heavy Rain
6:15 PM 77.0 °F - 60.8 °F 57% 29.98 in 0.2 mi Calm Calm - 0.39 in Rain Heavy Rain
6:35 PM 75.2 °F - 59.0 °F 57% 29.97 in 3.0 mi SE 4.6 mph - 0.49 in   Haze
6:55 PM 73.4 °F - 57.2 °F 57% 29.97 in 5.0 mi SSE 3.5 mph - 0.49 in   Haze
7:15 PM 75.2 °F - 59.0 °F 57% 29.97 in 6.0 mi SSE 3.5 mph - N/A   Haze
7:35 PM 75.2 °F - 59.0 °F 57% 29.97 in 8.0 mi SSE 3.5 mph - N/A   Clear
7:55 PM 77.0 °F - 60.8 °F 57% 29.97 in 8.0 mi Calm Calm - N/A   Clear
8:15 PM 77.0 °F - 60.8 °F 57% 29.97 in 9.0 mi Calm Calm - N/A   Clear
8:35 PM 77.0 °F - 60.8 °F 57% 29.96 in 7.0 mi South 4.6 mph - N/A   Clear
8:55 PM 78.8 °F - 60.8 °F 54% 29.96 in 6.0 mi South 4.6 mph - N/A   Haze
9:15 PM 78.8 °F - 60.8 °F 54% 29.97 in 6.0 mi South 6.9 mph - N/A   Haze
9:35 PM 78.8 °F - 62.6 °F 57% 29.97 in 7.0 mi South 4.6 mph - N/A   Clear
9:55 PM 78.8 °F - 62.6 °F 57% 29.97 in 6.0 mi South 4.6 mph - N/A   Haze
10:15 PM 78.8 °F - 62.6 °F 57% 29.98 in 7.0 mi Calm Calm - N/A   Partly Cloudy
10:35 PM 78.8 °F - 62.6 °F 57% 29.97 in 8.0 mi South 3.5 mph - N/A   Partly Cloudy
10:55 PM 78.8 °F - 60.8 °F 54% 29.97 in 9.0 mi South 4.6 mph - N/A   Clear
11:15 PM 78.8 °F - 60.8 °F 54% 29.96 in 9.0 mi South 4.6 mph - N/A   Clear
11:35 PM 77.0 °F - 60.8 °F 57% 29.97 in 10.0 mi Calm Calm - N/A   Clear
11:55 PM 77.0 °F - 60.8 °F 57% 29.97 in 7.0 mi SE 3.5 mph - N/A   Clear